Presure
196 208 190 197 192 203 202 189 183 217 216 201 260 255 274 294 282 207 244 211 269 196 199 231 216 220 218 216 213 216 201 161 191 212 200 192 176 152 142 158 173 171 183 186 157
192 199 192 225 200 201 210 205 204 200 198 212 197 276 244 257 279 274 280 260 223 250 247 238 227 233 222 218 223 227 221 204 192 191 208 205 204 173 176 135 157 173 168 179 169
203 210 191 213 205 213 200 202 197 214 235 227 254 263 293 286 292 260 263 281 260 274 291 286 302 241 226 219 221 249 214 203 205 198 203 216 209 196 174 201 133 156 164 192 187
186 193 202 184 220 215 192 177 215 186 211 222 232 262 272 273 284 274 280 249 280 258 263 276 286 294 250 232 222 228 242 204 203 191 202 226 212 210 179 199 207 130 133 165 175
198 178 190 201 204 211 183 208 188 191 217 225 230 240 257 278 278 279 281 282 277 298 283 262 276 295 311 319 316 280 216 232 231 211 212 208 223 212 204 189 206 201 141 133 139
198 196 189 213 194 205 181 223 232 205 204 224 228 233 246 260 270 284 294 280 280 288 303 371 353 308 327 312 325 336 284 236 242 246 227 215 209 222 217 212 216 167 212 183 135
189 178 202 207 192 190 177 175 194 200 209 218 225 224 244 258 287 283 296 297 313 347 393 387 389 459 454 436 304 319 337 305 231 233 245 201 213 222 222 218 217 203 180 142 186
193 200 190 183 188 185 207 193 191 220 210 217 214 225 237 266 282 295 284 328 355 401 402 385 388 446 444 425 389 354 329 338 298 288 245 237 201 192 212 217 214 214 209 197 195
198 189 182 200 188 182 205 193 199 206 214 212 205 219 244 277 289 292 324 438 490 479 474 372 364 354 373 413 419 423 402 324 303 249 282 263 220 198 199 199 214 215 214 211 211
193 188 189 193 188 170 197 211 201 213 210 208 211 227 252 283 290 320 461 492 462 426 409 397 365 339 336 396 373 385 427 380 314 306 317 255 258 221 203 207 212 213 213 203 213
202 179 195 190 183 182 197 181 207 208 161 203 223 235 270 292 289 354 489 454 426 408 372 360 359 379 365 374 388 369 390 405 364 360 295 290 284 240 227 206 202 213 212 215 206
181 198 193 188 182 187 200 191 214 178 216 211 225 240 281 291 334 477 454 412 383 365 352 350 366 377 385 376 358 362 379 401 345 340 362 292 289 269 245 226 211 204 209 216 217
201 200 193 192 145 193 201 208 220 200 219 221 229 257 282 284 463 449 412 376 357 348 352 354 389 407 373 371 382 364 366 366 332 329 356 339 276 276 268 234 228 221 207 204 212
181 203 199 176 144 192 192 195 207 164 221 218 224 251 288 288 461 426 378 359 342 336 286 343 390 379 369 377 337 347 349 322 349 318 333 329 337 328 329 251 232 231 218 205 204
196 196 195 175 187 199 204 195 204 218 215 209 223 247 289 296 432 387 368 348 336 338 330 326 353 360 338 328 335 332 312 320 316 348 314 323 321 327 316 327 247 234 235 222 217
192 200 181 177 197 209 206 189 187 163 204 216 232 254 294 347 408 377 353 343 329 329 322 316 333 315 298 323 333 307 316 330 322 322 336 324 322 326 311 311 311 270 234 235 225
187 199 182 173 196 206 203 207 185 207 221 219 232 254 301 450 399 373 350 337 321 319 320 329 315 326 308 313 325 337 313 314 315 318 334 348 328 326 328 319 317 304 306 240 240
192 195 202 184 199 195 211 209 158 211 222 222 238 257 294 445 394 368 349 335 322 320 311 336 344 316 321 321 323 307 301 323 325 321 330 336 340 327 313 314 311 296 288 314 318
177 182 192 192 203 200 209 209 201 212 216 226 239 259 291 429 396 375 350 331 317 319 307 326 340 372 316 330 337 306 322 345 321 329 326 353 365 316 308 303 308 300 288 298 303
182 195 190 220 209 201 200 213 206 208 216 229 233 256 291 431 399 369 344 332 319 302 311 323 333 342 340 324 333 334 306 315 326 323 346 332 374 384 308 298 304 297 294 296 302
190 193 193 173 216 202 211 221 214 216 229 217 228 237 296 432 399 361 333 331 319 304 304 326 326 332 328 331 309 312 340 319 315 337 316 340 339 384 341 298 295 294 288 286 286
202 208 201 206 225 206 209 209 217 216 230 216 227 237 304 424 403 357 335 327 318 311 296 312 321 315 316 312 320 313 313 320 316 319 320 327 365 367 333 299 293 294 284 276 277
199 197 170 176 210 220 174 227 220 221 224 217 227 240 302 419 396 344 333 340 355 334 309 299 319 310 307 306 303 302 306 306 312 311 320 323 331 361 340 300 290 291 285 278 278
198 181 191 196 195 213 196 207 216 210 233 218 224 239 299 408 372 341 332 390 358 340 336 296 323 308 306 299 307 272 307 306 302 318 310 333 336 341 332 323 291 287 281 279 278
194 198 194 205 210 204 187 227 204 212 217 213 231 238 299 427 383 348 333 373 359 347 336 298 320 308 301 299 290 260 255 304 305 293 328 329 321 335 335 316 313 288 285 275 272
193 189 197 195 212 200 215 215 209 214 221 217 233 237 302 423 384 356 350 359 366 349 344 302 298 313 305 300 295 292 265 326 313 309 302 319 321 317 315 323 308 294 292 295 292
161 210 187 204 191 196 198 223 228 228 221 221 230 238 308 423 391 374 356 355 349 347 355 320 298 311 308 300 290 291 312 274 307 316 319 312 311 318 323 324 327 328 309 293 293
Wind_Speed
44 40 49 44 46 48 41 47 59 48 50 61 51 56 50 49 60 89 81 91 83 86 87 103 100 100 97 94 92 92 88 78 82 84 87 93 79 75 67 67 70 68 66 71 66
48 45 47 51 48 45 44 49 48 60 59 57 64 59 53 53 44 47 55 68 94 80 98 102 102 108 103 99 100 99 91 85 91 91 93 96 86 80 79 67 73 72 70 72 68
50 53 52 54 53 53 51 53 55 57 68 59 71 66 68 59 52 51 54 55 79 74 71 80 92 107 103 96 98 103 89 94 95 95 96 96 91 87 86 85 73 72 75 75 68
57 56 58 57 65 63 56 62 68 61 67 66 70 75 77 64 65 50 51 74 61 84 86 89 90 82 109 103 102 101 96 97 97 99 99 94 95 96 86 90 88 70 75 77 73
63 60 61 68 67 68 60 69 62 66 76 83 79 81 84 83 73 70 59 58 66 61 74 94 96 95 93 94 106 116 93 103 104 102 100 94 97 100 97 86 88 86 83 72 69
65 64 66 68 68 67 67 78 83 71 73 91 88 92 92 83 76 72 74 65 67 69 73 80 80 88 86 96 97 98 116 101 104 109 103 96 99 102 100 97 92 87 93 84 74
70 68 69 67 69 67 68 72 66 75 82 91 95 94 99 91 88 81 77 75 74 81 76 72 72 55 55 63 95 93 99 117 103 104 104 97 102 98 102 100 96 94 89 79 84
69 69 71 72 71 73 81 73 69 89 86 92 90 106 100 98 92 86 78 86 85 75 63 58 56 42 46 52 65 79 97 101 94 112 103 105 100 99 102 101 101 99 97 93 91
68 69 74 71 72 77 82 73 71 82 94 90 86 105 107 99 94 87 91 68 45 42 34 49 48 47 48 42 39 50 64 91 82 93 112 105 109 107 103 100 106 101 99 98 95
72 73 74 72 77 75 76 84 74 89 94 92 92 103 109 104 97 97 62 41 39 40 35 37 43 44 45 41 47 51 46 66 86 92 96 109 112 119 109 108 107 105 103 95 96
70 74 75 76 78 77 77 70 81 83 70 82 114 115 109 106 100 103 34 28 30 26 27 33 35 32 41 39 34 48 44 48 62 68 93 97 113 124 120 112 105 106 104 107 97
75 75 78 79 79 81 85 74 87 78 96 98 111 116 111 105 106 34 23 21 20 19 22 26 24 26 30 39 45 46 42 39 63 69 67 94 98 127 126 119 113 108 107 109 108
76 78 80 78 68 83 86 82 94 80 101 107 116 114 113 106 46 24 19 16 14 15 14 14 15 14 27 33 37 38 35 36 58 61 63 70 93 104 123 124 123 115 106 104 107
76 79 82 77 65 82 82 70 78 65 104 106 113 122 115 106 23 18 15 13 11 11 9 7 5 9 20 28 38 35 34 46 37 62 61 67 70 84 86 127 124 123 115 108 103
81 81 81 79 80 86 89 72 79 100 101 91 111 123 114 108 22 22 16 11 9 4 4 4 7 15 17 27 34 35 43 46 42 41 65 67 73 73 82 80 123 124 126 118 112
82 82 81 81 86 92 88 69 78 77 89 110 122 123 115 96 19 17 15 9 9 4 3 6 7 27 29 17 29 42 40 33 40 50 55 63 66 68 74 75 84 112 121 123 119
83 86 83 78 86 91 89 86 71 88 109 111 122 124 113 13 16 13 17 12 9 5 1 4 11 20 29 31 35 38 41 44 50 57 51 51 58 61 61 67 73 81 87 124 125
84 87 87 83 90 90 95 88 73 93 110 111 126 124 111 9 15 14 16 9 8 4 2 3 16 21 21 26 28 33 39 45 46 46 48 48 51 55 60 62 67 75 88 80 85
78 80 86 89 91 91 92 86 80 89 98 115 127 124 109 14 12 13 13 10 9 4 5 3 4 16 23 24 27 31 34 43 40 46 39 40 37 54 59 62 62 69 79 78 81
82 85 87 91 93 91 79 86 84 85 102 117 120 121 107 13 11 13 13 10 11 9 6 5 8 11 19 22 23 29 29 31 36 35 25 33 22 33 55 57 59 64 69 72 75
81 86 88 77 93 90 93 98 92 96 112 104 114 122 106 13 11 14 17 12 13 11 8 9 13 12 17 16 25 25 22 27 32 33 34 28 31 22 44 56 59 61 65 69 72
85 87 90 92 94 91 91 85 95 95 113 97 115 123 106 17 10 16 16 14 16 13 12 10 15 17 18 20 21 25 24 22 25 26 28 27 21 23 40 51 55 58 63 68 70
89 89 75 78 95 98 60 101 102 99 106 100 115 122 102 15 11 19 17 13 16 18 14 11 16 17 19 21 22 21 22 23 24 25 25 24 22 21 31 47 52 55 59 63 66
91 77 88 94 85 101 59 77 90 80 115 98 108 118 101 18 18 20 18 7 19 21 18 17 20 21 23 21 20 24 21 21 22 23 22 22 18 22 29 37 50 54 58 61 63
92 96 93 100 103 82 52 109 64 84 92 84 115 118 102 12 13 17 19 9 17 23 22 19 21 24 22 22 20 25 24 20 20 20 18 20 23 19 25 34 39 50 53 57 59
92 90 97 94 102 71 101 95 73 84 100 91 117 116 95 11 10 14 13 7 8 19 25 21 17 24 24 22 20 18 20 21 21 20 20 19 21 25 28 30 37 41 43 45 49
52 100 76 86 62 82 74 100 111 109 94 94 109 113 93 11 10 11 11 8 8 11 14 20 16 20 22 20 18 19 19 20 17 18 19 20 21 23 27 29 30 31 37 42 43
Wind_Direction
312 322 311 302 292 309 296 310 302 300 305 300 329 297 286 289 283 272 269 266 263 258 253 253 252 250 248 247 245 243 240 241 239 237 238 240 236 234 230 231 232 230 232 235 233
322 319 312 334 313 314 319 308 305 302 296 296 298 336 298 292 289 284 281 272 259 267 256 253 252 248 246 243 244 242 239 233 236 237 235 238 237 236 235 228 230 231 229 234 230
328 335 317 333 327 327 316 320 306 325 339 329 339 336 337 328 318 270 274 286 265 264 262 261 255 249 247 243 244 242 235 234 233 234 236 235 237 235 235 235 229 228 229 236 233
326 326 329 322 336 332 315 308 332 308 330 333 331 340 338 325 323 293 289 272 273 263 261 258 256 255 249 249 246 240 236 234 233 235 235 231 235 235 236 235 234 229 231 231 229
329 324 328 332 333 334 312 330 318 316 336 339 336 337 338 333 323 315 301 290 275 282 261 260 258 254 251 246 242 243 236 235 231 233 234 232 230 233 235 234 232 233 229 230 228
328 328 331 334 328 334 315 339 339 334 331 341 336 337 334 331 322 318 315 289 279 275 276 282 269 257 253 249 241 239 238 238 236 231 231 229 232 231 232 236 230 231 232 231 229
328 329 329 333 330 328 314 314 327 331 337 343 341 333 332 331 327 319 313 303 300 300 287 278 271 265 261 256 252 244 237 236 235 233 230 232 231 231 230 232 233 230 234 229 233
325 326 328 327 328 325 335 330 328 342 338 345 336 335 333 332 327 321 309 313 305 293 285 277 268 261 253 250 247 234 239 235 234 233 231 225 231 233 231 229 232 231 232 231 232
322 324 327 326 327 325 335 328 335 342 340 343 330 335 335 332 326 322 321 307 295 289 282 270 262 254 250 240 243 236 236 237 234 234 228 224 228 232 231 230 230 230 231 233 232
323 324 326 326 326 320 330 337 338 343 339 343 332 332 336 334 328 327 314 300 291 286 279 268 259 252 248 238 231 239 233 232 231 230 228 227 220 228 229 229 229 229 230 231 233
322 325 324 325 327 323 327 319 339 343 320 335 339 338 339 336 330 327 313 302 291 286 275 265 260 251 238 231 219 231 229 228 226 228 224 223 222 220 226 229 229 229 229 230 230
324 324 324 326 325 324 328 323 339 325 344 341 341 340 341 336 335 314 317 306 298 288 275 267 254 236 223 218 215 221 219 216 219 223 226 222 221 221 220 224 229 228 229 229 230
323 322 323 326 316 326 330 333 335 334 344 344 344 341 343 338 330 323 321 315 300 285 282 271 263 238 215 211 204 216 216 215 221 223 225 223 221 222 219 219 226 229 228 230 229
324 323 324 324 318 327 328 329 341 326 343 348 346 345 344 340 330 327 322 313 298 294 279 286 294 211 200 190 200 212 183 209 223 219 221 223 223 226 227 218 221 226 227 231 231
324 323 326 325 327 327 330 331 342 339 346 344 344 345 344 342 337 330 317 315 299 310 279 253 158 140 149 191 198 200 205 209 210 225 219 220 222 226 225 225 221 224 225 227 231
325 323 324 325 328 328 328 327 323 325 349 347 346 347 344 344 327 319 313 303 305 306 248 251 190 170 203 203 183 199 197 194 205 223 221 221 223 224 226 223 224 223 226 226 229
323 322 323 322 326 327 329 334 327 346 345 350 347 348 345 330 316 304 301 308 292 288 224 229 214 193 204 208 197 187 204 208 205 221 220 222 222 223 224 224 225 225 227 226 227
322 321 321 323 325 327 328 334 326 344 347 352 348 349 346 316 310 302 301 309 289 271 235 138 181 219 217 214 218 202 209 211 217 224 228 224 221 221 222 222 223 222 225 227 226
320 320 321 323 324 327 330 334 344 343 352 349 349 348 347 315 301 287 300 299 283 258 244 179 251 194 211 215 216 204 209 206 218 228 229 237 233 218 221 220 220 220 223 225 227
319 319 321 321 322 326 329 333 345 351 352 349 352 349 347 309 299 295 306 277 265 271 235 237 185 169 189 199 202 207 208 211 215 223 235 230 238 232 219 220 220 220 223 224 225
316 317 320 320 322 327 330 332 340 347 343 354 352 350 348 311 306 305 314 278 266 256 252 224 198 182 173 178 191 196 198 204 212 218 229 236 232 226 218 216 218 219 222 224 225
317 319 320 323 325 326 329 333 339 349 343 354 353 350 349 313 303 314 308 289 277 256 253 218 198 188 182 184 184 193 197 201 211 215 225 228 226 219 215 215 217 218 221 225 226
315 317 316 319 326 328 314 331 337 344 347 354 351 349 349 305 305 320 309 286 214 225 227 222 199 196 193 197 199 202 204 207 213 214 217 221 222 209 212 213 216 218 220 224 226
314 316 319 322 327 327 326 338 339 352 339 354 351 349 348 314 321 316 309 240 206 216 204 222 192 198 199 205 199 206 208 211 217 216 216 204 208 205 209 212 216 219 220 223 226
314 315 319 320 324 322 322 328 347 348 351 355 346 347 348 288 306 306 307 210 204 208 206 214 193 195 201 204 204 207 211 214 214 212 207 203 207 201 204 210 215 219 222 224 226
314 317 318 321 323 325 327 331 342 342 344 353 345 348 348 297 293 296 287 248 198 211 213 212 208 200 201 204 205 206 205 200 211 212 204 200 203 204 207 209 215 219 222 225 227
308 315 318 317 317 315 326 327 327 332 343 348 346 348 347 304 268 252 248 217 182 189 204 202 202 204 203 202 206 206 207 208 214 209 207 208 208 210 212 214 217 220 221 223 226